Home > Weather > Eskilstuna > Past weeks

Flag for Sweden Weather for the Past 2 Weeks in Eskilstuna, Sweden

Now
52 °F

Cool.


Feels Like: 50 °F
Forecast: 43 / 59 °F
Wind: 6 mph from Southwest

Location: Vasteras / Hasslo

Current Time: May 5, 2016 at 12:42:00 AM

Latest Report: May 4, 2016 at 11:50 PM


Visibility: N/A

Pressure: 30.27 "Hg

Humidity: 50%

Dew Point: 34 °F

Location of EskilstunaLocation

Historic Weather in Eskilstuna — Graph

°F

Eskilstuna Temperature Yesterday

Maximum temperature yesterday: 64 °F (at 2:20 PM)
Minimum temperature yesterday: 37 °F (at 4:20 AM)
Average temperature yesterday: 53 °F

High & Low Weather Summary for the Past Weeks

 TemperatureHumidityPressure
High66 °F (May 3, 3:50 PM)100% (Apr 21, 11:20 PM)30.33 "Hg (Apr 21, 11:20 PM)
Low27 °F (Apr 25, 2:20 AM)20% (May 2, 2:50 PM)29.65 "Hg (Apr 25, 4:20 AM)
Average43 °F68%29.96 "Hg
* Reported Apr 19 7:20 PM — May 4 7:50 PM, Eskilstuna, Weather by CustomWeather, © 2016

Note: Actual official high and low records may vary slightly from our data, if they occured in-between our weather recording intervals... More about our weather records

Advertising

Eskilstuna Weather History for the Previous 24 Hours

Scroll right to see more
 ConditionsComfort  
Time TempWeatherWind HumidityBarometerVisibility
7:50 PM
Wed, May 4
61 °FSunny.10 mph39%30.21 "Hg10 mi
7:20 PM63 °FSunny.10 mph37%30.21 "Hg10 mi
6:50 PM63 °FSunny.10 mph37%30.21 "Hg10 mi
6:20 PM64 °FSunny.10 mph34%30.21 "Hg10 mi
5:50 PM64 °FSunny.10 mph32%30.21 "Hg10 mi
5:20 PM64 °FSunny.10 mph30%30.21 "Hg10 mi
4:20 PM64 °FSunny.10 mph34%30.21 "Hg10 mi
3:20 PM64 °FPassing clouds.10 mph37%30.21 "HgN/A
2:50 PM64 °FPassing clouds.10 mph40%30.21 "HgN/A
2:20 PM64 °FSunny.10 mph37%30.21 "Hg10 mi
1:20 PM63 °FSunny.10 mph42%30.21 "Hg10 mi
12:50 PM61 °FPassing clouds.9 mph48%30.21 "HgN/A
12:20 PM61 °FPassing clouds.9 mph48%30.21 "HgN/A
11:20 AM61 °FPassing clouds.8 mph52%30.18 "HgN/A
10:50 AM59 °FSunny.8 mph55%30.18 "Hg10 mi
9:50 AM55 °FSunny.7 mph63%30.18 "Hg10 mi
9:20 AM55 °FPassing clouds.5 mph59%30.18 "HgN/A
8:20 AM50 °FPassing clouds.5 mph71%30.15 "HgN/A
7:20 AM48 °FPassing clouds.5 mph76%30.15 "HgN/A
6:20 AM41 °FPassing clouds.3 mph87%30.15 "HgN/A
5:50 AM39 °FChilly.2 mph81%30.12 "HgN/A
5:20 AM37 °FChilly.1 mph87%30.12 "HgN/A
4:50 AM37 °FChilly.2 mph87%30.12 "HgN/A
4:20 AM37 °FChilly.No wind87%30.09 "HgN/A
3:50 AM39 °FChilly.2 mph81%30.09 "HgN/A
3:20 AM41 °FQuite cool.No wind76%30.09 "HgN/A
2:50 AM39 °FChilly.2 mph81%30.09 "HgN/A
1:50 AM43 °FQuite cool.1 mph76%30.09 "HgN/A
12:50 AM45 °FQuite cool.3 mph71%30.09 "HgN/A
Weather by CustomWeather, © 2016

See weather overviewHow to use our weather pages